Flag for Uruguay Weather past 2 weeks in Melo, Uruguay

Now
39 °F

Clear.


Feels Like: 39 °F
Forecast: 35 / 55 °F
Wind: 2 mph from North

Location: Pelotas Airport

Current Time: Jul 26, 2014 at 8:32:03 AM

Latest Report: Jul 26, 2014 at 6:00 AM


Visibility: 10 mi

Pressure: 30.18 "Hg

Humidity: 93%

Dew point: 37 °F

Location of MeloLocation

Historic Weather in Melo — Graph

°F

Melo temperature yesterday

Maximum temperature yesterday: 55 °F (at 1:00 PM)
Minimum temperature yesterday: 39 °F (at 6:00 AM)
Average temperature yesterday: 47 °F

Past Weeks' High & Low Weather Summary

 TemperatureHumidityPressure
High73 °F (Jul 14, 1:00 PM)100% (Jul 11, 6:00 AM)30.36 "Hg (Jul 11, 6:00 AM)
Low39 °F (Jul 25, 6:00 AM)41% (Jul 25, 2:00 PM)29.65 "Hg (Jul 23, 4:00 PM)
Average59 °F87%30.08 "Hg
* Reported Jul 11 6:00 AM — Jul 26 6:00 AM, Melo, Weather by CustomWeather, © 2014

Note: Actual official high and low records may vary slightly from our data, if they occured in-between our weather recording intervals... More about our weather records

Advertising

Melo weather history for previous 24 hours

 ConditionsComfort  
Time TempWeatherWind HumidityBarometerVisibility
6:00 AM
Jul 26
39 °FClear.2 mph93%30.18 "Hg10 mi
5:00 AM41 °FClear.5 mph87%30.15 "Hg10 mi
4:00 AM41 °FClear.5 mph87%30.15 "Hg10 mi
3:00 AM41 °FClear.2 mph87%30.15 "Hg10 mi
2:00 AM41 °FClear.5 mph93%30.15 "Hg10 mi
1:00 AM43 °FClear.3 mph87%30.18 "Hg10 mi
12:00 AM45 °FClear.2 mph81%30.18 "Hg10 mi
11:00 PM
Jul 25
45 °FClear.1 mph81%30.18 "Hg10 mi
10:00 PM45 °FClear.1 mph87%30.15 "Hg10 mi
9:00 PM45 °FClear.1 mph87%30.15 "Hg10 mi
8:00 PM46 °FClear.1 mph82%30.15 "Hg10 mi
7:00 PM46 °FClear.2 mph82%30.15 "Hg10 mi
6:00 PM50 °FClear.2 mph67%30.15 "Hg10 mi
5:00 PM55 °FClear.2 mph47%30.15 "Hg10 mi
4:00 PM55 °FSunny.5 mph47%30.15 "Hg10 mi
3:00 PM55 °FSunny.7 mph44%30.12 "Hg10 mi
2:00 PM55 °FPassing clouds.6 mph41%30.15 "HgN/A
1:00 PM55 °FPassing clouds.7 mph44%30.15 "HgN/A
12:00 PM54 °FPassing clouds.6 mph54%30.21 "HgN/A
11:00 AM52 °FSunny.6 mph62%30.21 "Hg10 mi
10:00 AM50 °FSunny.7 mph71%30.21 "Hg10 mi
9:00 AM45 °FSunny.3 mph81%30.18 "Hg10 mi
8:00 AM39 °FSunny.6 mph93%30.15 "Hg10 mi
Weather by CustomWeather, © 2014

See weather overviewHow to use our weather pages